Location: Newark
(25.0000°N, 73.5000°E)
Time: 11:39:53
(UTC+00:00)

Altair - Pass Details

Date: 08 March 2021
Orbit: 1501 x 1683 km, 47.2° (Epoch: 15 April)

Event Time Altitude Azimuth Distance (km) Brightness Sun altitude
Rises 08:41:41 0° 178° (S) 4,667 10.4 53.8°
Reaches altitude 10° 08:46:29 10° 157° (SSE) 3,663 9.9 53.1°
Maximum altitude 08:51:16 15° 124° (SE) 3,245 9.4 52.4°
Drops below altitude 10° 08:56:01 10° 92° (E) 3,646 9.3 51.7°
Sets 09:00:43 0° 72° (ENE) 4,633 9.7 51.0°
